sat.trackr.live / text

‹ back to catalog

STARLINK-3635

NORAD 51981 · 2022-025AB

PAYLOAD ACTIVE UNKNOWN

§ Identity

Operator
Country
US
Launch date
2022-03-09
Launch site
AFETR
Launch vehicle
Mass (kg)
RCS (m²)

Purposes: comms

External: N2YO · Heavens-Above · Gunter

§ Orbital elements

Epoch: 2026-05-25T04:31:56.303904Z

Period
95.44 min
Inclination
53.2131°
Eccentricity
0.0001496
Mean motion
15.08851412 rev/d
Perigee alt
538.7 km
Apogee alt
540.7 km
Semi-major
6,917.8 km
B*
-1.1398e-4
RAAN
55.7012°
Arg perigee
97.6481°
Mean anomaly
262.4681°
Rev number
23,260

§ Raw data

STARLINK-36351 51981U 22025AB  26145.18884611 -.00002102  00000+0 -11398-3 0  99912 51981  53.2131  55.7012 0001496  97.6481 262.4681 15.08851412232603

JSON: /api/v1/satellites/51981 · /tle

For live sub-satellite position, see the globe view (requires WebGL).

§ Visibility from observer

Set your observer location to see the next 7 days of passes ≥ 10°. The values pass through the URL so the page stays shareable.

No JS? Fill the form by hand. The geolocation button needs JavaScript.